Houston Hull, TX

8:23 PM CST on December 09, 2019 (GMT -0600)
Sugar Land Municipal-Hull

Weather History for KSGR - October, 2019

Change the Weather History Date:

Friday, October 11, 2019

  Actual Average Record
Temperature  
Mean Temperature 66 °F -  
Max Temperature 82 °F 81 °F 95 °F (1962)
Min Temperature 54 °F 60 °F 45 °F (1990)
Cooling Degree Days 2    
Growing Degree Days 16 (Base 50)    
Moisture  
Dew Point 61 °F    
Average Humidity 84    
Maximum Humidity 100    
Minimum Humidity 64    
Precipitation  
Precipitation 0.08 in - - ()
Sea Level Pressure  
Sea Level Pressure 30.03 in    
Wind  
Wind Speed 11 mph (NNW)    
Max Wind Speed 22 mph    
Max Gust Speed 32 mph    
Visibility 10 miles    
Events Rain , Thunderstorm    
Averages and records for this station are not official NWS values.
T = Trace of Precipitation, MM = Missing Value Source: NWS Daily Summary

Daily Weather History Graph

Daily Weather History Graph

Search for Another Location

Airport or City:

Astronomy

Oct. 11, 2019 Rise Set
Actual Time 7:21 AM CDT 6:56 PM CDT
Civil Twilight 6:57 AM CDT 7:20 PM CDT
Nautical Twilight 6:30 AM CDT 7:48 PM CDT
Astronomical Twilight 6:02 AM CDT 8:15 PM CDT
Moon 6:12 PM CDT (10/11) 5:19 AM CDT (10/11)
Length of Visible Light 12h 22m
Length of Day
11h 35m
Waxing Gibbous, 96% of the Moon is Illuminated
Oct 11
Waxing Gibbous
Oct 13
Full
Oct 21
Last Quarter
Oct 27
New
Nov 4
First Quarter

Hourly Weather History & Observations

Time (CDT) Temp. Dew Point Humidity Pressure Visibility Wind Dir Wind Speed Gust Speed Precip Events Conditions
12:53 AM 79.0 °F 75.9 °F 90% 29.86 in 10.0 mi SE 8.1 mph - N/A   Clear
1:53 AM 78.1 °F 75.9 °F 93% 29.87 in 10.0 mi SE 5.8 mph - N/A   Partly Cloudy
2:53 AM 78.1 °F 75.9 °F 93% 29.87 in 10.0 mi SSE 5.8 mph - N/A   Scattered Clouds
3:53 AM 77.0 °F 75.9 °F 96% 29.85 in 10.0 mi SSE 5.8 mph - N/A   Clear
4:53 AM 77.0 °F 75.9 °F 96% 29.88 in 10.0 mi SE 5.8 mph - N/A   Clear
5:53 AM 75.9 °F 75.0 °F 97% 29.88 in 10.0 mi South 4.6 mph - N/A   Clear
6:53 AM 77.0 °F 75.9 °F 96% 29.91 in 10.0 mi ENE 3.5 mph - N/A   Clear
7:33 AM 75.9 °F 75.0 °F 97% 29.92 in 10.0 mi NNW 3.5 mph - N/A   Mostly Cloudy
7:40 AM 75.9 °F 75.9 °F 100% 29.92 in 10.0 mi Calm Calm - N/A   Scattered Clouds
7:53 AM 77.0 °F 75.9 °F 96% 29.94 in 10.0 mi Calm Calm - N/A   Partly Cloudy
8:46 AM 73.0 °F 69.1 °F 87% 29.98 in 10.0 mi WNW 16.1 mph 23.0 mph N/A   Scattered Clouds
8:48 AM 71.6 °F 68.0 °F 88% 29.97 in 10.0 mi NNW 20.7 mph 25.3 mph N/A   Mostly Cloudy
8:53 AM 70.0 °F 66.9 °F 90% 29.99 in 10.0 mi NW 18.4 mph 25.3 mph 0.00 in Rain Light Rain
9:02 AM 69.1 °F 66.0 °F 90% 30.00 in 7.0 mi NW 17.3 mph 24.2 mph 0.01 in Rain , Thunderstorm Rain
9:10 AM 66.9 °F 64.9 °F 93% 29.99 in 6.0 mi NNW 17.3 mph 26.5 mph 0.03 in Rain , Thunderstorm Rain
9:13 AM 66.9 °F 64.9 °F 93% 29.99 in 5.0 mi NW 17.3 mph 26.5 mph 0.04 in Rain Heavy Rain
9:23 AM 66.0 °F 64.9 °F 96% 30.00 in 4.0 mi NW 11.5 mph - 0.08 in Rain , Thunderstorm Rain
9:43 AM 66.0 °F 64.9 °F 96% 30.01 in 10.0 mi NW 12.7 mph 19.6 mph 0.08 in   Overcast
9:53 AM 64.9 °F 64.0 °F 97% 30.02 in 10.0 mi NNW 16.1 mph 24.2 mph 0.08 in   Overcast
10:53 AM 63.0 °F 61.0 °F 93% 30.05 in 10.0 mi NNW 20.7 mph 28.8 mph N/A   Overcast
11:37 AM 60.1 °F 55.9 °F 86% 30.08 in 10.0 mi NNW 19.6 mph 32.2 mph N/A   Overcast
11:53 AM 60.1 °F 55.0 °F 83% 30.10 in 10.0 mi North 21.9 mph 29.9 mph N/A   Overcast
12:53 PM 59.0 °F 53.1 °F 81% 30.11 in 10.0 mi North 18.4 mph 29.9 mph N/A   Overcast
1:41 PM 59.0 °F 52.0 °F 78% 30.10 in 10.0 mi North 19.6 mph 29.9 mph N/A   Overcast
1:53 PM 59.0 °F 52.0 °F 78% 30.11 in 10.0 mi NNW 18.4 mph 31.1 mph N/A   Overcast
2:53 PM 60.1 °F 52.0 °F 75% 30.10 in 10.0 mi NNW 15.0 mph 28.8 mph N/A   Overcast
3:37 PM 64.0 °F 53.1 °F 67% 30.09 in 10.0 mi NNW 15.0 mph 28.8 mph N/A   Scattered Clouds
3:53 PM 61.0 °F 51.1 °F 70% 30.09 in 10.0 mi NNW 21.9 mph 28.8 mph N/A   Mostly Cloudy
4:53 PM 61.0 °F 50.0 °F 67% 30.09 in 10.0 mi North 20.7 mph 26.5 mph N/A   Partly Cloudy
5:53 PM 59.0 °F 48.0 °F 67% 30.12 in 10.0 mi North 13.8 mph 26.5 mph N/A   Clear
6:25 PM 54.0 °F 46.9 °F 77% 30.13 in 10.0 mi North 19.6 mph 27.6 mph N/A   Mostly Cloudy
6:53 PM 54.0 °F 46.0 °F 75% 30.15 in 10.0 mi North 19.6 mph 31.1 mph N/A   Overcast
7:53 PM 54.0 °F 42.1 °F 64% 30.16 in 10.0 mi NNE 17.3 mph - N/A   Scattered Clouds
8:53 PM 54.0 °F 43.0 °F 66% 30.18 in 10.0 mi NNE 18.4 mph 31.1 mph N/A   Clear
9:53 PM 54.0 °F 44.1 °F 69% 30.20 in 10.0 mi North 15.0 mph - N/A   Clear
10:53 PM 55.0 °F 45.0 °F 69% 30.20 in 10.0 mi NNE 17.3 mph - N/A   Clear
11:53 PM 55.0 °F 45.0 °F 69% 30.20 in 10.0 mi North 16.1 mph - N/A   Clear